{"data":{"norad_id":63357,"epoch":"2026-05-25T04:40:53.215968Z","epoch_age_seconds":55376,"freshness":"FRESH","line1":"1 63357U 25061G   26145.19506037  .00003720  00000+0  20560-3 0  9994","line2":"2 63357  97.5597 121.2341 0017904 333.6427  26.3892 15.14391742 64154","mean_motion":15.14391742,"eccentricity":0.0017904,"inclination_deg":97.5597,"raan_deg":121.2341,"arg_perigee_deg":333.6427,"mean_anomaly_deg":26.3892,"bstar":0.0002056,"rev_number":6415,"period_min":95.087681744635,"perigee_km":510.47031354231,"apogee_km":535.18128112701,"semimajor_km":6900.9627973347,"source":"CELESTRAK","updated_at":"2026-05-25T13:38:13.542137Z"}}